• In Uzbekistan
  • List of Countries
  • For 7 days
  • Water Temperature
  • Satellite Maps
  • Weather Map
  • Weather Widgets
  • user-avatar
    Login

    Hourly Weather Uyna

    Today, 23 April, Tuesday

    Time Temperature Precipitation Wind Pressure Humidity
    00:00 +21°C° 0 mm 0 mps 741 mmHg 97%
    01:00 +20°C° 0 mm 0 mps 741 mmHg 98%
    02:00 +20°C° 0 mm 0 mps 741 mmHg 98%
    03:00 +20°C° 0 mm 0 mps 740 mmHg 99%
    04:00 +20°C° 0 mm 0 mps 740 mmHg 99%
    05:00 +20°C° 0 mm 0 mps 741 mmHg 98%
    06:00 +21°C° 0 mm 0 mps 741 mmHg 97%
    07:00 +23°C° 0 mm 0 mps 741 mmHg 88%
    08:00 +24°C° 0 mm 0 mps 741 mmHg 79%
    09:00 +28°C° 0 mm 1 mps 741 mmHg 70%
    10:00 +30°C° 0 mm 1 mps 741 mmHg 60%
    11:00 +32°C° 0 mm 1 mps 740 mmHg 50%
    12:00 +36°C° 0 mm 2 mps 740 mmHg 40%
    13:00 +35°C° 0 mm 2 mps 739 mmHg 41%
    14:00 +35°C° 0 mm 2 mps 739 mmHg 42%
    15:00 +35°C° 0 mm 2 mps 738 mmHg 42%
    16:00 +32°C° 0 mm 2 mps 738 mmHg 51%
    17:00 +30°C° 0 mm 1 mps 738 mmHg 60%
    18:00 +28°C° 0 mm 1 mps 738 mmHg 68%
    19:00 +27°C° 0 mm 1 mps 739 mmHg 75%
    20:00 +25°C° 0 mm 1 mps 739 mmHg 81%
    21:00 +22°C° 0 mm 0 mps 740 mmHg 88%
    22:00 +21°C° 0 mm 0 mps 740 mmHg 91%
    23:00 +21°C° 0 mm 0 mps 740 mmHg 94%

    Tomorrow, 24 April, Wednesday

    Time Temperature Precipitation Wind Pressure Humidity
    00:00 +20°C° 0 mm 0 mps 740 mmHg 97%
    01:00 +21°C° 0 mm 0 mps 740 mmHg 97%
    02:00 +21°C° 0 mm 0 mps 739 mmHg 96%
    03:00 +21°C° 0 mm 0 mps 739 mmHg 96%
    04:00 +21°C° 0 mm 0 mps 739 mmHg 96%
    05:00 +21°C° 0 mm 0 mps 740 mmHg 96%
    06:00 +21°C° 0 mm 0 mps 740 mmHg 96%
    07:00 +24°C° 0 mm 0 mps 740 mmHg 82%
    08:00 +27°C° 0 mm 0 mps 740 mmHg 67%
    09:00 +30°C° 0 mm 0 mps 741 mmHg 52%
    10:00 +33°C° 0 mm 1 mps 740 mmHg 45%
    11:00 +35°C° 0 mm 1 mps 740 mmHg 39%
    12:00 +36°C° 0 mm 1 mps 739 mmHg 32%
    13:00 +37°C° 0 mm 2 mps 739 mmHg 32%
    14:00 +37°C° 0 mm 2 mps 738 mmHg 32%
    15:00 +37°C° 0 mm 2 mps 737 mmHg 33%
    16:00 +35°C° 0 mm 2 mps 737 mmHg 41%
    17:00 +32°C° 0 mm 1 mps 737 mmHg 50%
    18:00 +30°C° 0 mm 1 mps 738 mmHg 59%
    19:00 +28°C° 0 mm 1 mps 738 mmHg 67%
    20:00 +27°C° 0 mm 1 mps 739 mmHg 74%
    21:00 +25°C° 0 mm 1 mps 739 mmHg 82%
    22:00 +22°C° 0 mm 0 mps 739 mmHg 86%
    23:00 +21°C° 0 mm 0 mps 739 mmHg 90%

    Day after tomorrow, 25 April, Thursday

    Time Temperature Precipitation Wind Pressure Humidity
    00:00 +21°C° 0 mm 0 mps 739 mmHg 94%
    01:00 +20°C° 0 mm 0 mps 739 mmHg 95%
    02:00 +20°C° 0 mm 0 mps 739 mmHg 96%
    03:00 +20°C° 0 mm 0 mps 739 mmHg 98%
    04:00 +20°C° 0 mm 0 mps 739 mmHg 95%
    05:00 +21°C° 0 mm 0 mps 739 mmHg 93%
    06:00 +21°C° 0 mm 0 mps 740 mmHg 91%
    07:00 +24°C° 0 mm 0 mps 740 mmHg 78%
    08:00 +26°C° 0 mm 0 mps 740 mmHg 64%
    09:00 +31°C° 0 mm 1 mps 741 mmHg 51%
    10:00 +33°C° 0 mm 1 mps 740 mmHg 43%
    11:00 +35°C° 0 mm 1 mps 739 mmHg 36%
    12:00 +37°C° 0 mm 2 mps 739 mmHg 28%
    13:00 +38°C° 0 mm 2 mps 738 mmHg 27%
    14:00 +38°C° 0 mm 2 mps 737 mmHg 27%
    15:00 +38°C° 0 mm 2 mps 737 mmHg 26%
    16:00 +35°C° 0 mm 1 mps 737 mmHg 33%
    17:00 +33°C° 0 mm 1 mps 737 mmHg 40%
    18:00 +30°C° 0 mm 1 mps 737 mmHg 47%
    19:00 +29°C° 0 mm 1 mps 738 mmHg 57%
    20:00 +27°C° 0 mm 1 mps 739 mmHg 68%
    21:00 +26°C° 0 mm 1 mps 740 mmHg 79%
    22:00 +23°C° 0 mm 0 mps 740 mmHg 85%
    23:00 +22°C° 0 mm 0 mps 740 mmHg 90%

    26 April, Friday

    Time Temperature Precipitation Wind Pressure Humidity
    00:00 +22°C° 0 mm 0 mps 740 mmHg 96%
    01:00 +21°C° 0 mm 0 mps 740 mmHg 97%
    02:00 +21°C° 0 mm 0 mps 739 mmHg 98%
    03:00 +21°C° 0 mm 0 mps 739 mmHg 99%
    04:00 +21°C° 0 mm 0 mps 739 mmHg 98%
    05:00 +22°C° 0 mm 0 mps 740 mmHg 96%
    06:00 +22°C° 0 mm 0 mps 740 mmHg 95%
    07:00 +24°C° 0 mm 0 mps 740 mmHg 83%
    08:00 +29°C° 0 mm 1 mps 741 mmHg 70%
    09:00 +32°C° 0 mm 1 mps 741 mmHg 57%
    10:00 +35°C° 0 mm 1 mps 741 mmHg 48%
    11:00 +36°C° 0 mm 0 mps 740 mmHg 39%
    12:00 +39°C° 0 mm 0 mps 739 mmHg 30%
    13:00 +37°C° 0 mm 0 mps 738 mmHg 32%
    14:00 +39°C° 0 mm 1 mps 737 mmHg 34%
    15:00 +37°C° 0 mm 1 mps 737 mmHg 36%
    16:00 +35°C° 0 mm 1 mps 737 mmHg 42%
    17:00 +31°C° 0 mm 0 mps 737 mmHg 48%
    18:00 +29°C° 0 mm 0 mps 738 mmHg 54%
    19:00 +30°C° 0 mm 1 mps 738 mmHg 56%
    20:00 +30°C° 0 mm 1 mps 739 mmHg 58%
    21:00 +29°C° 0 mm 1 mps 740 mmHg 60%
    22:00 +27°C° 0 mm 1 mps 740 mmHg 67%
    23:00 +26°C° 0 mm 1 mps 740 mmHg 74%

    27 April, Saturday

    Time Temperature Precipitation Wind Pressure Humidity
    00:00 +22°C° 0 mm 0 mps 740 mmHg 81%
    01:00 +22°C° 0 mm 0 mps 739 mmHg 82%
    02:00 +22°C° 0 mm 0 mps 739 mmHg 84%
    03:00 +22°C° 0 mm 0 mps 739 mmHg 86%
    04:00 +22°C° 0 mm 0 mps 739 mmHg 87%
    05:00 +22°C° 0 mm 0 mps 740 mmHg 88%
    06:00 +21°C° 0 mm 0 mps 740 mmHg 88%
    07:00 +25°C° 0 mm 0 mps 740 mmHg 74%
    08:00 +28°C° 0 mm 0 mps 741 mmHg 60%
    09:00 +32°C° 0 mm 0 mps 741 mmHg 45%
    10:00 +35°C° 0 mm 1 mps 740 mmHg 39%
    11:00 +37°C° 0 mm 1 mps 739 mmHg 34%
    12:00 +39°C° 0 mm 1 mps 738 mmHg 28%
    13:00 +39°C° 0 mm 1 mps 738 mmHg 28%
    14:00 +39°C° 0 mm 1 mps 737 mmHg 28%
    15:00 +39°C° 0 mm 2 mps 736 mmHg 28%
    16:00 +37°C° 0 mm 2 mps 736 mmHg 35%
    17:00 +34°C° 0 mm 1 mps 737 mmHg 41%
    18:00 +32°C° 0 mm 1 mps 737 mmHg 47%
    19:00 +30°C° 0 mm 1 mps 738 mmHg 54%
    20:00 +29°C° 0 mm 1 mps 739 mmHg 60%
    21:00 +27°C° 0 mm 1 mps 739 mmHg 67%
    22:00 +26°C° 0 mm 1 mps 739 mmHg 74%
    23:00 +23°C° 0 mm 0 mps 739 mmHg 81%

    28 April, Sunday

    Time Temperature Precipitation Wind Pressure Humidity
    00:00 +22°C° 0 mm 0 mps 739 mmHg 88%
    01:00 +22°C° 0 mm 0 mps 739 mmHg 89%
    02:00 +21°C° 0 mm 0 mps 739 mmHg 90%
    03:00 +21°C° 0 mm 0 mps 739 mmHg 91%
    04:00 +22°C° 0 mm 0 mps 739 mmHg 90%
    05:00 +22°C° 0 mm 0 mps 739 mmHg 90%
    06:00 +22°C° 0 mm 0 mps 740 mmHg 89%
    07:00 +25°C° 0 mm 0 mps 740 mmHg 75%
    08:00 +28°C° 0 mm 0 mps 740 mmHg 61%
    09:00 +32°C° 0 mm 0 mps 740 mmHg 47%
    10:00 +35°C° 0 mm 1 mps 740 mmHg 41%
    11:00 +36°C° 0 mm 1 mps 739 mmHg 35%
    12:00 +39°C° 0 mm 1 mps 738 mmHg 28%
    13:00 +39°C° 0 mm 1 mps 738 mmHg 27%
    14:00 +39°C° 0 mm 2 mps 737 mmHg 25%
    15:00 +39°C° 0 mm 2 mps 736 mmHg 23%
    16:00 +36°C° 0 mm 1 mps 737 mmHg 29%
    17:00 +34°C° 0 mm 1 mps 737 mmHg 36%
    18:00 +31°C° 0 mm 1 mps 737 mmHg 42%
    19:00 +29°C° 0 mm 1 mps 738 mmHg 57%
    20:00 +28°C° 0 mm 1 mps 739 mmHg 71%
    21:00 +26°C° 0 mm 1 mps 739 mmHg 86%
    22:00 +26°C° 0.1 mm 1 mps 739 mmHg 90%
    23:00 +23°C° 0.1 mm 0 mps 739 mmHg 93%
    Show more